Forecast Directory
U.S. Alerts
El Dorado Weather Logo
U.S. Radar Loop Conditions Map

U.S. Color Satellite North America Color Infrared Animated Satellite Loop

Interactive Wx Map Live U.S. Google Map Radar Thumbnail Image

US Precipitation 1 day, 24 hour precipitation map

US Temperatures US Conditions Map

US Climate Data US Conditions Map


NOAA NWS Hourly Roundups by Site
Regional Weather Roundup for Sacramento, CA
Select Site:  

000
ASUS46 KSTO 100215
RWRCA

NORTHERN AND CENTRAL CA REGIONAL WEATHER ROUNDUP
NATIONAL WEATHER SERVICE SACRAMENTO CA
600 PM PST MON DEC 09 2019

NOTE: FAIR INDICATES FEW OR NO CLOUDS BELOW 12,000 FEET WITH NO
SIGNIFICANT WEATHER AND/OR OBSTRUCTIONS TO VISIBILITY.

CAZ001-003-100300-
NORTHWEST AREA

CITY           SKY/WX    TMP DP  RH WIND       PRES   REMARKS
CRESCENT CITY  CLOUDY    47  46  97 S3        30.20R
UKIAH          PTCLDY    50  48  93 CALM      30.18S
$$

CAZ006-505>513-100300-
BAY AREA

CITY           SKY/WX    TMP DP  RH WIND       PRES   REMARKS
SANTA ROSA     CLOUDY    52  50  93 N5        30.20S
SAN RAFAEL     N/A       MM  MM  MM MISG
NAPA           CLOUDY    53  49  86 NW6       30.19S
CONCORD        CLOUDY    55  47  74 W5        30.19R
OAKLAND CITY   N/A       55  MM  MM MISG
OAKLAND        MOCLDY    55  48  77 NW8       30.20R
SAN FRAN CITY  N/A       54  MM  77 MISG
SAN FRAN ARPT  MOCLDY    55  47  74 NW6       30.19R
LIVERMORE      CLOUDY    53  49  86 CALM      30.18R
HAYWARD        CLOUDY    54  48  80 NW5       30.19R
SAN JOSE ARPT  MOCLDY    54  49  83 NW6       30.19R
$$
CAZ034-037-514>518-100300-
CENTRAL COAST

CITY           SKY/WX    TMP DP  RH WIND       PRES   REMARKS
WATSONVILLE    CLEAR     53  32  44 CALM      30.17R
SALINAS        CLOUDY    55  50  83 W6        30.18R
MONTEREY       MOCLDY    56  51  84 CALM      30.18R
SAN LUIS OBISP CLEAR     58  45  62 VRB5      30.13R
SANTA MARIA    CLEAR     55  50  83 NW10      30.11R
$$
CAZ015-016-100300-
NORTHERN SACRAMENTO VALLEY

CITY           SKY/WX    TMP DP  RH WIND       PRES   REMARKS
REDDING        PTCLDY    48  42  80 CALM      30.16R
RED BLUFF      PTCLDY    53  44  71 CALM      30.18R
OROVILLE       CLEAR     54  45  71 NE3       30.19R
$$
CAZ016>018-100300-
SOUTHERN SACRAMENTO VALLEY

CITY           SKY/WX    TMP DP  RH WIND       PRES   REMARKS
AUBURN         CLEAR     43  41  93 CALM      30.18S
BEALE AFB      CLEAR     47  44  89 E5        30.17R
LINCOLN        FAIR      45  43  93 NE5       30.17S
MARYSVILLE     CLEAR     47  44  90 CALM      30.18R
SAC INTL ARPT  PTCLDY    51  46  83 E3        30.17R
MATHER AIRPORT NOT AVBL
DOWNTOWN SAC   N/A       52  MM  MM MISG
SAC EXEC ARPT  CLEAR     50  46  86 SW3       30.18R
VACAVILLE      CLEAR     52  48  86 SW6       30.18R
TRAVIS AFB     CLEAR     51  48  89 SW10      30.17S
$$
CAZ019>021-100300-
SAN JOAQUIN VALLEY

CITY           SKY/WX    TMP DP  RH WIND       PRES   REMARKS
STOCKTON       CLEAR     54  50  86 CALM      30.17R
MODESTO        CLEAR     52  47  83 CALM      30.17R
MERCED         PTCLDY    52  47  83 E5        30.18R
LEMOORE        CLOUDY    54  51  90 E3        30.19R
FRESNO         MOCLDY    51  47  86 NE3       30.19R
HANFORD        CLEAR     50  48  93 NE5       30.19R FOG
PORTERVILLE    CLOUDY    52  49  89 NE5       30.20R
BAKERSFIELD    PTCLDY    52  48  86 N6        30.17R
$$
CAZ011-012-071-100300-
NORTHERN MOUNTAINS

CITY           SKY/WX    TMP DP  RH WIND       PRES   REMARKS
YREKA          CLOUDY    39  35  86 S6        30.25R WCI  35
MOUNT SHASTA   CLOUDY    34  33  96 VRB5      30.19S WCI  30
ALTURAS        FOG       33  32  96 E5        30.20R VSB 1/2 WCI  29
$$
CAZ011-012-071-100300-
SIERRA NEVADA MTNS

CITY           SKY/WX    TMP DP  RH WIND       PRES   REMARKS
BLUE CANYON    CLEAR     39  35  86 CALM      30.18R
TRUCKEE        FOG       30  28  93 CALM      30.22S VSB 1/4
TAHOE VLY ARPT PTCLDY    28  26  92 S3        30.19R
MAMMOTH LAKES  FAIR      25  17  72 NW3       30.21S
$$


 

View Past Reports for Sacramento, CA.

Products Courtesy of NOAA-NWS
NWS Information Parsing Script by Ken True at Saratoga Weather - Script by SE Lincoln Weather.



Contact Us | Mobile
Never base any life decisions on weather information from this site or anywhere over the Internet.
Site is dedicated to our Lord & Savior Jesus Christ | Random Jesus Quotes

Copyright © 2019 El Dorado Weather, Inc. | Site Designed By:  El Dorado Weather